When you browse on this site, cookies collect data to enhance your experience and personalize the content and advertising you see.
Visit our Privacy Policy to learn more. By continuing to use the site, you agree to this use of cookies and data.
  • In Spain
  • List of Countries
  • For 7 days
  • Water Temperature
  • Weather Map
  • Weather Widgets
  • user-avatar
    Login

    Hourly Weather Karaganda

    Today, 13 November, Wednesday

    Time Temperature Precipitation Wind Pressure Humidity
    00:00 -9°C° 0 mm 4 mps 718 mmHg 68%
    01:00 -10°C° 0 mm 4 mps 718 mmHg 67%
    02:00 -10°C° 0 mm 4 mps 718 mmHg 67%
    03:00 -10°C° 0 mm 4 mps 717 mmHg 66%
    04:00 -10°C° 0 mm 4 mps 717 mmHg 66%
    05:00 -10°C° 0 mm 4 mps 717 mmHg 65%
    06:00 -10°C° 0 mm 4 mps 717 mmHg 65%
    07:00 -10°C° 0 mm 4 mps 717 mmHg 65%
    08:00 -9°C° 0 mm 4 mps 716 mmHg 65%
    09:00 -8°C° 0 mm 4 mps 716 mmHg 66%
    10:00 -7°C° 0 mm 4 mps 716 mmHg 66%
    11:00 -5°C° 0 mm 4 mps 716 mmHg 67%
    12:00 -5°C° 0 mm 4 mps 716 mmHg 67%
    13:00 -4°C° 0 mm 4 mps 715 mmHg 68%
    14:00 -4°C° 0 mm 4 mps 715 mmHg 68%
    15:00 -5°C° 0 mm 4 mps 715 mmHg 67%
    16:00 -5°C° 0 mm 4 mps 715 mmHg 66%
    17:00 -7°C° 0 mm 4 mps 715 mmHg 65%
    18:00 -7°C° 0 mm 4 mps 714 mmHg 65%
    19:00 -7°C° 0 mm 3 mps 714 mmHg 65%
    20:00 -7°C° 0 mm 3 mps 714 mmHg 66%
    21:00 -7°C° 0 mm 3 mps 714 mmHg 65%
    22:00 -7°C° 0 mm 3 mps 713 mmHg 65%
    23:00 -8°C° 0 mm 3 mps 713 mmHg 65%

    Tomorrow, 14 November, Thursday

    Time Temperature Precipitation Wind Pressure Humidity
    00:00 -9°C° 0 mm 4 mps 713 mmHg 65%
    01:00 -9°C° 0 mm 4 mps 712 mmHg 65%
    02:00 -10°C° 0 mm 4 mps 712 mmHg 65%
    03:00 -10°C° 0 mm 4 mps 712 mmHg 68%
    04:00 -10°C° 0 mm 4 mps 712 mmHg 70%
    05:00 -9°C° 0 mm 3 mps 712 mmHg 73%
    06:00 -9°C° 0 mm 3 mps 712 mmHg 75%
    07:00 -10°C° 0 mm 3 mps 712 mmHg 77%
    08:00 -10°C° 0 mm 3 mps 712 mmHg 79%
    09:00 -8°C° 0 mm 2 mps 712 mmHg 80%
    10:00 -6°C° 0 mm 2 mps 712 mmHg 81%
    11:00 -5°C° 0 mm 2 mps 713 mmHg 82%
    12:00 -5°C° 0 mm 2 mps 713 mmHg 86%
    13:00 -3°C° 0 mm 1 mps 713 mmHg 89%
    14:00 -2°C° 0 mm 1 mps 713 mmHg 92%
    15:00 -3°C° 0.1 mm 1 mps 714 mmHg 94%
    16:00 -6°C° 0.1 mm 2 mps 714 mmHg 95%
    17:00 -6°C° 0.1 mm 2 mps 714 mmHg 96%
    18:00 -8°C° 0.1 mm 3 mps 715 mmHg 96%
    19:00 -10°C° 0.1 mm 4 mps 715 mmHg 95%
    20:00 -12°C° 0.1 mm 5 mps 716 mmHg 94%
    21:00 -13°C° 0 mm 5 mps 717 mmHg 94%
    22:00 -14°C° 0 mm 4 mps 717 mmHg 94%
    23:00 -15°C° 0 mm 4 mps 718 mmHg 94%

    Day after tomorrow, 15 November, Friday

    Time Temperature Precipitation Wind Pressure Humidity
    00:00 -16°C° 0 mm 4 mps 718 mmHg 95%
    01:00 -16°C° 0 mm 4 mps 718 mmHg 95%
    02:00 -17°C° 0 mm 4 mps 719 mmHg 95%
    03:00 -18°C° 0 mm 4 mps 720 mmHg 95%
    04:00 -19°C° 0 mm 4 mps 720 mmHg 96%
    05:00 -20°C° 0 mm 4 mps 721 mmHg 96%
    06:00 -22°C° 0 mm 4 mps 721 mmHg 96%
    07:00 -22°C° 0 mm 3 mps 722 mmHg 96%
    08:00 -22°C° 0 mm 3 mps 722 mmHg 96%
    09:00 -21°C° 0 mm 3 mps 723 mmHg 92%
    10:00 -19°C° 0 mm 3 mps 724 mmHg 88%
    11:00 -18°C° 0 mm 3 mps 724 mmHg 83%
    12:00 -17°C° 0 mm 3 mps 724 mmHg 82%
    13:00 -17°C° 0 mm 3 mps 725 mmHg 81%
    14:00 -15°C° 0 mm 2 mps 725 mmHg 80%
    15:00 -15°C° 0 mm 2 mps 724 mmHg 77%
    16:00 -15°C° 0 mm 2 mps 724 mmHg 76%
    17:00 -16°C° 0 mm 2 mps 724 mmHg 75%
    18:00 -16°C° 0 mm 2 mps 724 mmHg 73%
    19:00 -16°C° 0 mm 2 mps 724 mmHg 72%
    20:00 -17°C° 0 mm 3 mps 724 mmHg 70%
    21:00 -17°C° 0 mm 3 mps 724 mmHg 69%
    22:00 -17°C° 0 mm 3 mps 724 mmHg 67%
    23:00 -17°C° 0 mm 3 mps 724 mmHg 66%

    16 November, Saturday

    Time Temperature Precipitation Wind Pressure Humidity
    00:00 -17°C° 0 mm 3 mps 724 mmHg 66%
    01:00 -18°C° 0 mm 3 mps 724 mmHg 66%
    02:00 -18°C° 0 mm 3 mps 724 mmHg 67%
    03:00 -19°C° 0 mm 4 mps 723 mmHg 68%
    04:00 -19°C° 0 mm 4 mps 723 mmHg 70%
    05:00 -19°C° 0 mm 4 mps 723 mmHg 71%
    06:00 -18°C° 0 mm 4 mps 723 mmHg 71%
    07:00 -18°C° 0 mm 4 mps 723 mmHg 71%
    08:00 -18°C° 0 mm 4 mps 723 mmHg 71%
    09:00 -16°C° 0 mm 4 mps 723 mmHg 71%
    10:00 -15°C° 0 mm 4 mps 723 mmHg 71%
    11:00 -12°C° 0 mm 4 mps 723 mmHg 71%
    12:00 -13°C° 0 mm 5 mps 722 mmHg 73%
    13:00 -12°C° 0 mm 5 mps 722 mmHg 74%
    14:00 -11°C° 0 mm 5 mps 722 mmHg 76%
    15:00 -12°C° 0 mm 5 mps 721 mmHg 77%
    16:00 -12°C° 0 mm 5 mps 721 mmHg 78%
    17:00 -13°C° 0 mm 5 mps 721 mmHg 79%
    18:00 -12°C° 0 mm 5 mps 720 mmHg 78%
    19:00 -12°C° 0 mm 5 mps 720 mmHg 77%
    20:00 -12°C° 0 mm 5 mps 720 mmHg 76%
    21:00 -11°C° 0 mm 6 mps 720 mmHg 74%
    22:00 -11°C° 0 mm 6 mps 719 mmHg 73%
    23:00 -11°C° 0 mm 7 mps 719 mmHg 71%

    17 November, Sunday

    Time Temperature Precipitation Wind Pressure Humidity
    00:00 -11°C° 0 mm 7 mps 719 mmHg 71%
    01:00 -11°C° 0 mm 7 mps 718 mmHg 71%
    02:00 -12°C° 0 mm 7 mps 718 mmHg 71%
    03:00 -12°C° 0 mm 7 mps 718 mmHg 72%
    04:00 -12°C° 0 mm 7 mps 717 mmHg 73%
    05:00 -12°C° 0 mm 7 mps 717 mmHg 73%
    06:00 -11°C° 0 mm 6 mps 717 mmHg 75%
    07:00 -11°C° 0 mm 6 mps 717 mmHg 76%
    08:00 -11°C° 0 mm 5 mps 717 mmHg 78%
    09:00 -11°C° 0 mm 6 mps 717 mmHg 79%
    10:00 -10°C° 0 mm 6 mps 717 mmHg 79%
    11:00 -9°C° 0 mm 6 mps 717 mmHg 80%
    12:00 -8°C° 0 mm 6 mps 716 mmHg 81%
    13:00 -7°C° 0 mm 5 mps 716 mmHg 81%
    14:00 -6°C° 0 mm 5 mps 716 mmHg 82%
    15:00 -7°C° 0 mm 5 mps 716 mmHg 82%
    16:00 -7°C° 0 mm 4 mps 715 mmHg 83%
    17:00 -8°C° 0 mm 4 mps 715 mmHg 84%
    18:00 -8°C° 0 mm 4 mps 715 mmHg 86%
    19:00 -8°C° 0 mm 4 mps 715 mmHg 88%
    20:00 -6°C° 0 mm 3 mps 715 mmHg 90%
    21:00 -6°C° 0 mm 3 mps 715 mmHg 92%
    22:00 -6°C° 0 mm 3 mps 715 mmHg 94%
    23:00 -6°C° 0 mm 3 mps 715 mmHg 96%

    18 November, Monday

    Time Temperature Precipitation Wind Pressure Humidity
    00:00 -6°C° 0 mm 3 mps 714 mmHg 96%
    01:00 -6°C° 0 mm 3 mps 714 mmHg 95%
    02:00 -6°C° 0 mm 3 mps 714 mmHg 95%
    03:00 -6°C° 0 mm 3 mps 713 mmHg 95%
    04:00 -7°C° 0 mm 3 mps 713 mmHg 95%
    05:00 -7°C° 0 mm 3 mps 713 mmHg 95%
    06:00 -7°C° 0.1 mm 3 mps 713 mmHg 96%
    07:00 -7°C° 0.1 mm 3 mps 713 mmHg 96%
    08:00 -7°C° 0.1 mm 3 mps 713 mmHg 96%
    09:00 -8°C° 0.1 mm 3 mps 713 mmHg 94%
    10:00 -8°C° 0.1 mm 3 mps 713 mmHg 93%
    11:00 -8°C° 0.1 mm 3 mps 713 mmHg 92%
    12:00 -9°C° 0 mm 3 mps 713 mmHg 91%
    13:00 -10°C° 0 mm 4 mps 713 mmHg 91%
    14:00 -10°C° 0 mm 4 mps 713 mmHg 90%
    15:00 -10°C° 0.1 mm 3 mps 713 mmHg 92%
    16:00 -13°C° 0.1 mm 3 mps 713 mmHg 93%
    17:00 -14°C° 0.1 mm 3 mps 713 mmHg 95%
    18:00 -15°C° 0 mm 3 mps 713 mmHg 95%
    19:00 -16°C° 0 mm 3 mps 714 mmHg 95%
    20:00 -16°C° 0 mm 2 mps 714 mmHg 96%
    21:00 -17°C° 0 mm 2 mps 714 mmHg 96%
    22:00 -18°C° 0 mm 2 mps 714 mmHg 97%
    23:00 -19°C° 0 mm 2 mps 714 mmHg 97%
    Show more